This is the latest recevied weather packets stored in our database for station/object 9M2SAR-10. If no packets are shown the sender has not sent any weather packets the latest 10 day(s).
| Time | Temp. | Humidity | Pressure | Rain* | Wind** | Luminosity | Snow |
|---|---|---|---|---|---|---|---|
| 1777743988 | 27.22° C | 100% | 1009.9 hPa | - | - | - | - |
| 1777743088 | 26.67° C | 100% | 1010.3 hPa | - | - | - | - |
| 1777742188 | 27.22° C | 100% | 1010.5 hPa | - | - | - | - |
| 1777741288 | 27.22° C | 100% | 1010.7 hPa | - | - | - | - |
| 1777740388 | 27.78° C | 100% | 1010.8 hPa | - | - | - | - |
| 1777739488 | 27.78° C | 100% | 1010.8 hPa | - | - | - | - |
| 1777738587 | 27.22° C | 100% | 1010.7 hPa | - | - | - | - |
| 1777737687 | 27.78° C | 100% | 1010.7 hPa | - | - | - | - |
| 1777736787 | 27.22° C | 100% | 1010.5 hPa | - | - | - | - |
| 1777735887 | 27.78° C | 100% | 1010.1 hPa | - | - | - | - |
| 1777732287 | 27.78° C | 100% | 1010 hPa | - | - | - | - |
| 1777731387 | 27.78° C | 100% | 1009.7 hPa | - | - | - | - |
| 1777730487 | 27.22° C | 100% | 1009.5 hPa | - | - | - | - |
| 1777729587 | 28.33° C | 100% | 1009.3 hPa | - | - | - | - |
| 1777728687 | 27.78° C | 100% | 1009.1 hPa | - | - | - | - |
| 1777727787 | 28.33° C | 100% | 1008.8 hPa | - | - | - | - |
| 1777726886 | 28.33° C | 100% | 1008.6 hPa | - | - | - | - |
| 1777725986 | 28.89° C | 100% | 1008.7 hPa | - | - | - | - |
| 1777725086 | 28.89° C | 100% | 1008.6 hPa | - | - | - | - |
| 1777724186 | 28.89° C | 100% | 1008.4 hPa | - | - | - | - |
| 1777723286 | 28.89° C | 100% | 1008.2 hPa | - | - | - | - |
| 1777722386 | 28.33° C | 100% | 1008.3 hPa | - | - | - | - |
| 1777721486 | 28.89° C | 100% | 1008 hPa | - | - | - | - |
| 1777720586 | 29.44° C | 100% | 1007.8 hPa | - | - | - | - |
| 1777719686 | 30° C | 100% | 1007.7 hPa | - | - | - | - |
* Rain since midnight (hover to see other rain measurements)
** Current wind speed in m/s (hover to see current wind gust speed)